CAPE
0 0 0 0 0 0 0 0 0 0 0 0 0 0 0 0 0 0 0 0 0 0 0 0 0 0 0 0 0 0 0 0
0 0 0 0 0 0 0 0 0 0 0 0 0 0 0 0 0 0 0 0 0 0 0 0 0 0 0 0 0 0 0 0
0 0 0 0 0 0 0 0 0 0 0 0 0 0 0 0 0 0 0 0 0 0 0 0 0 0 0 0 0 0 0 0
0 0 0 0 0 0 0 0 0 0 0 0 0 0 0 0 0 0 0 0 0 0 0 0 0 0 0 0 0 0 0 0
0 0 0 0 0 0 0 0 0 0 0 0 0 0 0 0 0 0 0 0 0 0 0 0 0 0 0 0 0 0 0 0
0 0 0 0 0 0 0 0 0 0 0 0 0 0 0 0 0 0 0 0 0 0 0 0 0 0 0 0 0 0 0 0
0 0 0 0 0 0 0 0 0 0 0 0 0 0 0 0 0 0 0 0 0 0 0 0 0 0 0 0 0 0 0 0
0 0 0 0 0 0 0 0 0 0 0 0 0 0 0 0 0 0 0 0 0 0 0 0 0 0 0 0 0 0 0 0
0 0 0 0 0 0 0 0 0 0 0 0 0 0 0 0 0 0 0 0 0 0 0 0 0 0 0 0 0 0 0 0
0 0 0 0 0 0 0 0 0 0 0 0 0 0 0 0 0 0 0 0 0 0 0 0 0 0 0 0 0 0 0 0
0 0 0 0 0 0 0 0 0 0 0 0 0 0 0 0 0 0 0 0 0 0 0 0 0 0 0 0 0 0 0 0
0 0 0 0 0 0 0 0 0 0 0 0 0 0 0 0 0 0 0 0 0 0 0 0 0 0 0 0 0 0 0 0
0 0 0 0 0 0 0 0 0 0 0 0 0 0 0 0 0 0 0 0 0 0 0 0 0 0 0 0 0 0 0 0
0 0 0 0 0 0 0 0 0 0 0 0 0 0 0 0 0 0 0 0 0 0 0 0 0 0 0 0 0 0 0 0
0 0 0 0 0 0 0 0 0 0 0 0 0 0 0 0 0 0 0 0 0 0 0 0 0 0 0 0 0 0 2 3
0 0 0 0 0 0 0 0 0 0 0 0 0 0 0 0 0 0 0 0 0 0 0 0 0 0 0 1 0 2 4 0
0 0 0 0 0 0 0 0 0 0 0 0 0 0 0 0 0 0 0 0 0 0 0 0 0 0 0 0 1 3 0 0
0 0 0 0 0 0 0 0 0 0 0 0 0 0 0 0 0 0 0 0 0 0 0 0 0 0 0 1 0 0 0 0
0 0 0 0 0 0 0 0 0 0 0 0 0 0 0 0 0 0 0 0 0 0 0 0 0 0 0 0 1 0 0 0
0 0 0 0 0 0 0 0 0 0 0 0 0 0 0 0 0 0 0 0 0 0 0 0 0 0 0 0 0 0 0 0
CIN
-0 -0 -0 -0 -0 -0 -0 -0 -0 -0 -0 -0 -0 -0 -0 -0 -0 -0 -0 -0 -0 -0 -0 -0 -0 -0 -0 -0 -0 -0 -0 -0
-0 -0 -0 -0 -0 -0 -0 -0 -0 -0 -0 -0 -0 -0 -0 -0 -0 -0 -0 -0 -0 -0 -0 -0 -0 -0 -0 -0 -0 -0 -0 -0
-0 -0 -0 -0 -0 -0 -0 -0 -0 -0 -0 -0 -0 -0 -0 -0 -0 -0 -0 -0 -0 -0 -0 -0 -0 -0 -0 -0 -0 -0 -0 -0
-0 -0 -0 -0 -0 -0 -0 -0 -0 -0 -0 -0 -0 -0 -0 -0 -0 -0 -0 -0 -0 -0 -0 -0 -0 -0 -0 -0 -0 -0 -0 -0
-0 -0 -0 -0 -0 -0 -0 -0 -0 -0 -0 -0 -0 -0 -0 -0 -0 -0 -0 -0 -0 -0 -0 -0 -0 -0 -0 -0 -0 -0 -0 -0
-0 -0 -0 -0 -0 -0 -0 -0 -0 -0 -0 -0 -0 -0 -0 -0 -0 -0 -0 -0 -0 -0 -0 -0 -0 -0 -0 -0 -0 -0 -0 -0
-0 -0 -0 -0 -0 -0 -0 -0 -0 -0 -0 -0 -0 -0 -0 -0 -0 -0 -0 -0 -0 -0 -0 -0 -0 -0 -0 -0 -0 -0 -0 -0
-0 -0 -0 -0 -0 -0 -0 -0 -0 -0 -0 -0 -0 -0 -0 -0 -0 -0 -0 -0 -0 -0 -0 -0 -0 -0 -0 -0 -0 -0 -0 -0
-0 -0 -0 -0 -0 -0 -0 -0 -0 -0 -0 -0 -0 -0 -0 -0 -0 -0 -0 -0 -0 -0 -0 -0 -0 -0 -0 -0 -0 -0 -0 -0
-0 -0 -0 -0 -0 -0 -0 -0 -0 -0 -0 -0 -0 -0 -0 -0 -0 -0 -0 -0 -0 -0 -0 -0 -0 -0 -0 -0 -0 -0 -0 -0
-0 -0 -0 -0 -0 -0 -0 -0 -0 -0 -0 -0 -0 -0 -0 -0 -0 -0 -0 -0 -0 -0 -0 -0 -0 -0 -0 -0 -0 -0 -0 -0
-0 -0 -0 -0 -0 -0 -0 -0 -0 -0 -0 -0 -0 -0 -0 -0 -0 -0 -0 -0 -0 -0 -0 -0 -0 -0 -0 -0 -0 -0 -0 -0
-0 -0 -0 -0 -0 -0 -0 -0 -0 -0 -0 -0 -0 -0 -0 -0 -0 -0 -0 -0 -0 -0 -0 -0 -0 -0 -0 -0 -0 -0 -0 -1
-0 -0 -0 -0 -0 -0 -0 -0 -0 -0 -0 -0 -0 -0 -0 -0 -0 -0 -0 -0 -0 -0 -0 -0 -0 -0 -0 -0 -0 -0 -0 -1
-0 -0 -0 -0 -0 -0 -0 -0 -0 -0 -0 -0 -0 -0 -0 -0 -0 -0 -0 -0 -0 -0 -0 -0 -0 -0 -0 -0 -0 -0 -1 -1
-0 -0 -0 -0 -0 -0 -0 -0 -0 -0 -0 -0 -0 -0 -0 -0 -0 -0 -0 -0 -0 -0 -0 -0 -0 -0 -0 -1 -1 -1 -1 -0
-0 -0 -0 -0 -0 -0 -0 -0 -0 -0 -0 -0 -0 -0 -0 -0 -0 -0 -0 -0 -0 -0 -0 -0 -1 -1 -1 -2 -2 -3 -0 -0
-0 -0 -0 -0 -0 -0 -0 -0 -0 -0 -0 -0 -0 -0 -0 -0 -0 -0 -0 -0 -0 -0 -0 -0 -0 -0 -0 -2 -2 -0 -0 -0
-0 -0 -0 -0 -0 -0 -0 -0 -0 -0 -0 -0 -0 -0 -0 -0 -0 -0 -0 -0 -0 -0 -0 -0 -0 -0 -1 -1 -1 -0 -0 -0
-0 -0 -0 -0 -0 -0 -0 -0 -0 -0 -0 -0 -0 -0 -0 -0 -0 -0 -0 -0 -0 -0 -0 -0 -0 -0 -0 -0 -0 -0 -0 -0
Wind_Speed
8 7 6 5 6 7 7 8 9 11 12 13 14 15 16 18 20 22 22 23 24 26 28 29 31 32 33 33 33 35 36 36
9 8 8 8 8 7 8 9 11 12 13 13 15 16 18 19 19 20 21 23 25 27 29 30 32 33 34 34 35 37 38 38
10 10 10 11 10 10 11 12 13 14 14 15 15 17 18 19 19 20 22 24 26 27 29 31 32 33 34 36 36 38 39 40
14 15 13 13 12 13 14 15 15 15 16 17 18 18 18 19 20 21 22 24 26 28 30 32 33 34 34 35 36 37 38 39
17 17 17 15 15 16 17 17 17 17 17 19 19 19 18 19 21 22 23 25 27 28 31 32 33 34 34 35 36 36 37 38
19 19 18 19 19 19 19 19 18 19 20 21 19 19 19 20 20 22 24 26 28 29 31 32 33 33 35 35 36 38 39 39
19 20 21 21 21 21 21 19 19 21 22 21 20 21 21 22 23 24 26 28 29 30 31 32 33 33 34 35 37 37 39 40
22 22 21 20 21 20 19 20 21 21 21 21 21 22 22 22 24 27 28 28 29 30 30 32 32 33 34 35 36 37 38 40
20 20 18 17 17 19 20 21 20 21 22 22 23 24 24 25 27 27 27 28 29 29 30 31 33 33 34 35 35 36 37 39
17 16 16 17 18 19 20 19 20 21 22 23 24 25 25 26 26 26 27 27 28 28 30 32 34 33 34 35 36 36 38 38
15 15 16 17 17 18 19 19 21 22 23 24 23 23 23 23 23 24 25 27 27 29 30 32 34 33 34 34 35 37 38 39
17 17 17 17 16 18 20 22 22 20 20 20 19 19 19 20 21 23 24 26 28 30 31 32 32 33 33 33 34 36 40 42
18 18 18 17 17 20 21 20 19 19 18 18 17 17 18 19 20 22 25 27 29 31 33 32 31 31 33 33 33 35 40 43
17 18 18 17 17 19 20 18 18 18 18 17 17 17 18 19 21 23 24 27 30 32 35 35 32 31 31 32 33 36 38 39
18 20 20 18 18 19 20 18 18 18 18 17 18 19 20 20 21 22 25 28 31 34 35 35 33 32 30 31 33 33 36 38
19 20 20 19 20 21 20 19 20 19 18 19 19 20 21 21 22 24 25 27 31 32 32 34 34 31 29 33 35 36 37 39
20 21 22 22 23 22 20 18 18 19 19 20 21 21 22 24 26 24 26 27 28 28 29 29 27 28 30 32 34 36 37 37
22 23 23 24 24 22 19 17 18 19 20 21 21 23 24 25 27 30 29 27 27 27 27 26 28 28 30 31 32 34 35 35
23 23 24 24 23 20 18 18 19 20 22 22 24 24 26 27 28 29 32 33 31 27 27 27 27 28 28 30 31 33 32 30
23 23 23 23 22 19 18 19 20 22 24 24 26 27 29 30 31 31 32 32 32 31 29 28 27 28 28 29 29 31 31 31
Wind_Direction
272 269 273 284 297 308 315 317 324 325 327 327 327 328 327 326 326 328 331 331 332 331 331 330 329 327 326 324 324 322 322 321
272 273 277 282 285 292 299 307 309 314 316 318 318 318 321 322 324 327 329 329 330 329 328 327 327 326 325 323 322 320 319 320
273 275 276 276 277 282 291 297 301 305 306 307 310 312 315 318 321 325 325 327 327 328 327 327 326 326 324 322 321 320 319 319
280 279 274 271 274 280 289 294 297 297 300 303 304 307 310 314 318 321 323 324 326 327 326 325 324 324 323 322 321 320 320 319
281 278 278 274 278 281 288 291 291 291 294 296 298 302 306 310 313 317 319 321 322 324 324 324 324 324 323 322 321 321 321 320
280 279 280 283 283 283 289 289 287 289 291 293 296 299 303 305 308 313 316 318 320 321 322 323 323 323 323 322 321 320 320 320
282 283 285 286 285 287 288 284 285 289 289 292 294 297 300 302 305 309 312 314 317 318 320 321 323 323 322 322 321 320 320 320
285 287 290 289 290 288 287 288 287 286 289 291 293 295 297 299 303 306 308 312 314 317 319 320 322 323 322 322 322 321 321 321
292 294 295 298 298 299 299 295 290 288 289 290 291 292 295 298 300 303 307 310 313 315 318 320 322 323 323 323 322 321 321 322
297 299 302 302 304 305 304 301 296 292 290 291 292 293 294 296 299 303 306 309 312 315 317 319 322 322 322 322 322 321 321 323
300 303 304 305 306 304 304 303 300 298 297 297 296 294 294 297 300 304 307 310 313 315 317 319 321 322 322 322 322 321 322 323
302 301 302 303 304 303 304 303 303 305 306 305 303 299 299 301 304 306 308 311 313 315 317 319 320 321 322 322 322 322 322 322
300 300 301 299 299 301 302 306 308 308 309 309 307 307 305 304 306 308 310 311 313 315 317 319 320 320 322 322 322 322 321 322
296 298 299 294 295 298 303 308 308 307 307 308 310 309 309 306 307 309 310 311 314 316 316 317 319 320 321 322 323 323 323 325
297 298 296 291 291 293 305 306 302 303 304 305 306 306 306 307 309 309 310 312 314 316 317 318 319 319 322 323 324 326 326 327
296 295 295 295 291 294 298 301 298 299 300 302 305 304 305 306 308 309 312 313 315 317 319 319 318 319 321 322 323 325 327 327
296 295 296 299 299 299 297 294 293 296 297 300 304 306 306 308 310 310 311 314 315 316 317 320 318 318 319 320 322 325 328 328
297 296 299 302 302 303 298 294 292 295 300 303 304 306 307 308 308 310 314 314 315 316 318 318 318 318 318 320 322 327 328 328
301 301 303 304 304 304 299 296 296 298 303 304 305 307 308 308 309 310 310 311 313 316 318 318 317 317 318 320 322 324 328 329
303 304 305 306 306 306 303 300 300 302 304 306 307 308 309 309 310 310 309 310 310 313 315 317 316 316 316 319 321 323 325 322